This is the latest recevied weather packets stored in our database for station/object KY0TEQ-13. If no packets are shown the sender has not sent any weather packets the latest 10 day(s).
| Time | Temp. | Humidity | Pressure | Rain* | Wind** | Luminosity | Snow |
|---|---|---|---|---|---|---|---|
| 1777955810 | 7.22° C | 45% | 1297.4 hPa | 0 mm | - | 0 W/m² | - |
| 1777955506 | 7.22° C | 44% | 1297.4 hPa | 0 mm | - | 0 W/m² | - |
| 1777955202 | 7.78° C | 42% | 1297.4 hPa | 0 mm | - | 0 W/m² | - |
| 1777954900 | 8.33° C | 42% | 1297.6 hPa | 0 mm | - | 0 W/m² | - |
| 1777954596 | 8.33° C | 40% | 1297.4 hPa | 0 mm | - | 0 W/m² | - |
| 1777954294 | 8.33° C | 41% | 1297.3 hPa | 0 mm | - | 0 W/m² | - |
| 1777953990 | 8.89° C | 36% | 1297.4 hPa | 0 mm | - | 0 W/m² | - |
| 1777953688 | 8.89° C | 37% | 1297.2 hPa | 0 mm | - | 0 W/m² | - |
| 1777953384 | 8.33° C | 37% | 1297.4 hPa | 0 mm | - | 0 W/m² | - |
| 1777953080 | 9.44° C | 38% | 1297.4 hPa | 0 mm | - | 0 W/m² | - |
| 1777952777 | 10° C | 33% | 1297.4 hPa | 0 mm | - | 0 W/m² | - |
| 1777952474 | 10.56° C | 32% | 1297.3 hPa | 0 mm | - | 0 W/m² | - |
| 1777952171 | 10° C | 33% | 1297.6 hPa | 0 mm | - | 0 W/m² | - |
| 1777951870 | 10.56° C | 32% | 1297.3 hPa | 0 mm | - | 0 W/m² | - |
| 1777951567 | 10.56° C | 32% | 1297.1 hPa | 0 mm | - | 0 W/m² | - |
| 1777951264 | 10.56° C | 31% | 1297.1 hPa | 0 mm | - | 0 W/m² | - |
| 1777950961 | 10.56° C | 32% | 1297.1 hPa | 0 mm | - | 0 W/m² | - |
| 1777950656 | 11.11° C | 33% | 1297 hPa | 0 mm | - | 0 W/m² | - |
| 1777950354 | 10.56° C | 31% | 1296.8 hPa | 0 mm | - | 0 W/m² | - |
| 1777950049 | 10° C | 35% | 1297 hPa | 0 mm | - | 0 W/m² | - |
| 1777949745 | 10.56° C | 35% | 1296.8 hPa | 0 mm | - | 0 W/m² | - |
| 1777949445 | 10.56° C | 34% | 1296.8 hPa | 0 mm | - | 0 W/m² | - |
| 1777949142 | 11.67° C | 31% | 1296.8 hPa | 0 mm | - | 0 W/m² | - |
| 1777948838 | 12.22° C | 29% | 1296.7 hPa | 0 mm | - | 0 W/m² | - |
| 1777948535 | 12.22° C | 28% | 1297 hPa | 0 mm | - | 0 W/m² | - |
* Rain latest hour (hover to see other rain measurements)
** Current wind speed in m/s (hover to see current wind gust speed)